Orbital Elements at Epoch 2459200.5 (2020-Dec-17.0) TDB
Reference: JPL 27 (heliocentric ecliptic J2000)
Element | Value | Uncertainty (1-sigma) | Units |
e | .1688260506049344 | 5.8409e-08 | |
a | 3.97751720434351 | 3.6348e-08 | au |
q | 3.306008683521015 | 2.3677e-07 | au |
i | 5.243286539031797 | 5.6727e-06 | deg |
node | 240.4393740292302 | 5.4943e-05 | deg |
peri | 135.8770515609526 | 5.6508e-05 | deg |
M | 289.538611157385 | 1.5605e-05 | deg |
tp | 2459767.607284062551 (2022-Jul-07.10728406) | 0.0001311 | TDB |
period | 2897.453848355648 7.93 | 3.9717e-05 1.087e-07 | d yr |
n | .1242470178444105 | 1.7031e-09 | deg/d |
Q | 4.649025725166005 | 4.2485e-08 | au |
|
| | Orbit Determination Parameters
Additional Information
|